Time,TemperatureF,DewpointF,PressureIn,WindDirection,WindDirectionDegrees,WindSpeedMPH,WindSpeedGustMPH,Humidity,HourlyPrecipIn,Conditions,Clouds,dailyrainin,SoftwareType,DateUTC
2013-04-21 00:26:00,40.3,35.3,30.08,NE,45,0.0,-999.0,82,-99.99,,,0.00,Acu-Link.com,2013-04-21 04:26:00,
2013-04-21 00:41:00,40.5,35.8,30.09,NE,45,0.0,-999.0,83,-99.99,,,0.00,Acu-Link.com,2013-04-21 04:41:00,
2013-04-21 00:56:00,40.3,36.2,30.09,NE,45,0.0,-999.0,85,-99.99,,,0.00,Acu-Link.com,2013-04-21 04:56:00,
2013-04-21 01:12:00,39.9,36.1,30.08,NE,45,0.0,-999.0,86,-99.99,,,0.00,Acu-Link.com,2013-04-21 05:12:00,
2013-04-21 01:27:00,39.4,35.6,30.09,NE,45,0.0,-999.0,86,-99.99,,,0.00,Acu-Link.com,2013-04-21 05:27:00,
2013-04-21 01:42:00,39.2,35.1,30.09,NE,45,0.0,-999.0,85,-99.99,,,0.00,Acu-Link.com,2013-04-21 05:42:00,
2013-04-21 01:57:00,38.5,34.7,30.10,NE,45,0.0,-999.0,86,-99.99,,,0.00,Acu-Link.com,2013-04-21 05:57:00,
2013-04-21 02:13:00,38.7,35.5,30.09,NE,45,0.0,-999.0,88,-99.99,,,0.00,Acu-Link.com,2013-04-21 06:13:00,
2013-04-21 02:28:00,37.9,35.0,30.08,NE,45,0.0,-999.0,89,-99.99,,,0.00,Acu-Link.com,2013-04-21 06:28:00,
2013-04-21 02:43:00,37.4,34.5,30.09,NE,45,0.0,-999.0,89,-99.99,,,0.00,Acu-Link.com,2013-04-21 06:43:00,
2013-04-21 02:58:00,36.9,34.2,30.09,NE,45,0.0,-999.0,90,-99.99,,,0.00,Acu-Link.com,2013-04-21 06:58:00,
2013-04-21 03:14:00,36.7,36.2,30.09,NE,45,0.0,-999.0,98,-99.99,,,0.00,Acu-Link.com,2013-04-21 07:14:00,
2013-04-21 03:29:00,37.0,36.5,30.10,NE,45,0.0,-999.0,98,-99.99,,,0.00,Acu-Link.com,2013-04-21 07:29:00,
2013-04-21 03:44:00,37.2,36.7,30.10,NE,45,0.0,-999.0,98,-99.99,,,0.00,Acu-Link.com,2013-04-21 07:44:00,
2013-04-21 04:00:00,36.5,36.0,30.11,NE,45,0.0,-999.0,98,-99.99,,,0.00,Acu-Link.com,2013-04-21 08:00:00,
2013-04-21 04:15:00,36.9,36.4,30.10,NE,45,0.0,-999.0,98,-99.99,,,0.00,Acu-Link.com,2013-04-21 08:15:00,
2013-04-21 04:31:00,36.9,36.4,30.10,NE,45,0.0,-999.0,98,-99.99,,,0.00,Acu-Link.com,2013-04-21 08:31:00,
2013-04-21 04:46:00,37.2,36.7,30.10,NE,45,0.0,-999.0,98,-99.99,,,0.00,Acu-Link.com,2013-04-21 08:46:00,
2013-04-21 05:01:00,37.6,37.1,30.11,NE,45,0.0,-999.0,98,-99.99,,,0.00,Acu-Link.com,2013-04-21 09:01:00,
2013-04-21 05:16:00,37.2,36.7,30.11,NE,45,0.0,-999.0,98,-99.99,,,0.00,Acu-Link.com,2013-04-21 09:16:00,
2013-04-21 05:31:00,36.7,36.2,30.12,NE,45,0.0,-999.0,98,-99.99,,,0.00,Acu-Link.com,2013-04-21 09:31:00,
2013-04-21 05:47:00,36.5,36.0,30.12,NE,45,0.0,-999.0,98,-99.99,,,0.00,Acu-Link.com,2013-04-21 09:47:00,
2013-04-21 06:02:00,36.9,36.4,30.12,NE,45,0.0,-999.0,98,-99.99,,,0.00,Acu-Link.com,2013-04-21 10:02:00,
2013-04-21 06:17:00,36.7,36.2,30.13,NE,45,0.0,-999.0,98,-99.99,,,0.00,Acu-Link.com,2013-04-21 10:17:00,
2013-04-21 06:33:00,36.7,36.2,30.13,NE,45,0.0,-999.0,98,-99.99,,,0.00,Acu-Link.com,2013-04-21 10:33:00,
2013-04-21 06:48:00,36.3,35.8,30.14,NE,45,0.0,-999.0,98,-99.99,,,0.00,Acu-Link.com,2013-04-21 10:48:00,
2013-04-21 07:03:00,36.3,35.8,30.15,NE,45,0.0,-999.0,98,-99.99,,,0.00,Acu-Link.com,2013-04-21 11:03:00,
2013-04-21 07:19:00,36.7,36.2,30.15,NE,45,0.0,-999.0,98,-99.99,,,0.00,Acu-Link.com,2013-04-21 11:19:00,
2013-04-21 07:34:00,36.9,36.4,30.15,NE,45,0.0,-999.0,98,-99.99,,,0.00,Acu-Link.com,2013-04-21 11:34:00,
2013-04-21 07:50:00,38.7,38.2,30.15,SSE,157,0.0,-999.0,98,-99.99,,,0.00,Acu-Link.com,2013-04-21 11:50:00,
2013-04-21 08:05:00,39.9,39.4,30.14,ESE,112,0.0,-999.0,98,-99.99,,,0.00,Acu-Link.com,2013-04-21 12:05:00,
2013-04-21 08:20:00,40.8,38.9,30.15,ESE,112,0.0,-999.0,93,-99.99,,,0.00,Acu-Link.com,2013-04-21 12:20:00,
2013-04-21 08:35:00,41.9,37.7,30.16,SSE,157,0.0,-999.0,85,-99.99,,,0.00,Acu-Link.com,2013-04-21 12:35:00,
2013-04-21 08:51:00,43.9,38.8,30.15,SSE,157,0.0,-999.0,82,-99.99,,,0.00,Acu-Link.com,2013-04-21 12:51:00,
2013-04-21 09:06:00,46.2,36.6,30.15,NNE,22,2.7,-999.0,69,-99.99,,,0.00,Acu-Link.com,2013-04-21 13:06:00,
2013-04-21 09:21:00,47.7,34.5,30.15,ENE,67,2.2,-999.0,60,-99.99,,,0.00,Acu-Link.com,2013-04-21 13:21:00,
2013-04-21 09:36:00,48.6,34.1,30.16,ENE,67,1.7,-999.0,57,-99.99,,,0.00,Acu-Link.com,2013-04-21 13:36:00,
2013-04-21 09:51:00,49.3,33.4,30.16,NNW,337,4.2,-999.0,54,-99.99,,,0.00,Acu-Link.com,2013-04-21 13:51:00,
2013-04-21 10:07:00,50.2,34.2,30.16,North,0,2.7,-999.0,54,-99.99,,,0.00,Acu-Link.com,2013-04-21 14:07:00,
2013-04-21 10:22:00,51.8,34.7,30.17,NE,45,1.7,-999.0,52,-99.99,,,0.00,Acu-Link.com,2013-04-21 14:22:00,
2013-04-21 10:37:00,53.2,35.0,30.16,ENE,67,1.7,-999.0,50,-99.99,,,0.00,Acu-Link.com,2013-04-21 14:37:00,
2013-04-21 10:52:00,54.7,35.9,30.17,NNE,22,3.2,-999.0,49,-99.99,,,0.00,Acu-Link.com,2013-04-21 14:52:00,
2013-04-21 11:08:00,54.9,35.6,30.17,NNE,22,2.2,-999.0,48,-99.99,,,0.00,Acu-Link.com,2013-04-21 15:08:00,
2013-04-21 11:23:00,57.6,36.4,30.16,ESE,112,2.7,-999.0,45,-99.99,,,0.00,Acu-Link.com,2013-04-21 15:23:00,
2013-04-21 11:38:00,55.9,37.0,30.16,NNE,22,2.7,-999.0,49,-99.99,,,0.00,Acu-Link.com,2013-04-21 15:38:00,
2013-04-21 11:53:00,57.0,38.0,30.16,North,0,2.7,-999.0,49,-99.99,,,0.00,Acu-Link.com,2013-04-21 15:53:00,
2013-04-21 12:08:00,58.5,37.2,30.16,ENE,67,1.7,-999.0,45,-99.99,,,0.00,Acu-Link.com,2013-04-21 16:08:00,
2013-04-21 12:24:00,59.2,37.3,30.16,NNW,337,2.7,-999.0,44,-99.99,,,0.00,Acu-Link.com,2013-04-21 16:24:00,
2013-04-21 12:39:00,60.3,37.7,30.15,NNE,22,4.7,-999.0,43,-99.99,,,0.00,Acu-Link.com,2013-04-21 16:39:00,
2013-04-21 12:54:00,61.3,37.4,30.14,NNE,22,4.2,-999.0,41,-99.99,,,0.00,Acu-Link.com,2013-04-21 16:54:00,
2013-04-21 13:09:00,62.4,38.4,30.14,NNE,22,3.7,-999.0,41,-99.99,,,0.00,Acu-Link.com,2013-04-21 17:09:00,
2013-04-21 13:25:00,64.4,36.9,30.13,NW,315,3.2,-999.0,36,-99.99,,,0.00,Acu-Link.com,2013-04-21 17:25:00,
2013-04-21 13:40:00,65.1,38.9,30.13,East,90,3.7,-999.0,38,-99.99,,,0.00,Acu-Link.com,2013-04-21 17:40:00,
2013-04-21 13:55:00,70.9,34.3,30.11,NW,315,8.9,-999.0,26,-99.99,,,0.00,Acu-Link.com,2013-04-21 17:55:00,
2013-04-21 14:11:00,72.9,37.0,30.11,NNE,22,5.3,-999.0,27,-99.99,,,0.00,Acu-Link.com,2013-04-21 18:11:00,
2013-04-21 14:26:00,72.0,32.2,30.11,SSW,202,1.7,-999.0,23,-99.99,,,0.00,Acu-Link.com,2013-04-21 18:26:00,
2013-04-21 14:41:00,74.5,33.2,30.10,NNE,22,2.2,-999.0,22,-99.99,,,0.00,Acu-Link.com,2013-04-21 18:41:00,
2013-04-21 14:56:00,74.5,34.3,30.09,NE,45,3.2,-999.0,23,-99.99,,,0.00,Acu-Link.com,2013-04-21 18:56:00,
2013-04-21 15:11:00,73.8,33.7,30.08,WSW,247,2.7,-999.0,23,-99.99,,,0.00,Acu-Link.com,2013-04-21 19:11:00,
2013-04-21 15:26:00,74.8,33.4,30.07,North,0,4.7,-999.0,22,-99.99,,,0.00,Acu-Link.com,2013-04-21 19:26:00,
2013-04-21 15:42:00,73.9,30.3,30.08,ESE,112,2.7,-999.0,20,-99.99,,,0.00,Acu-Link.com,2013-04-21 19:42:00,
2013-04-21 15:57:00,68.9,32.6,30.06,NNW,337,1.7,-999.0,26,-99.99,,,0.00,Acu-Link.com,2013-04-21 19:57:00,
2013-04-21 16:12:00,69.8,30.3,30.06,NW,315,4.7,-999.0,23,-99.99,,,0.00,Acu-Link.com,2013-04-21 20:12:00,
2013-04-21 16:27:00,72.9,32.9,30.05,North,0,2.7,-999.0,23,-99.99,,,0.00,Acu-Link.com,2013-04-21 20:27:00,
2013-04-21 16:43:00,72.9,30.7,30.04,WNW,292,6.3,-999.0,21,-99.99,,,0.00,Acu-Link.com,2013-04-21 20:43:00,
2013-04-21 16:58:00,72.3,34.5,30.03,NE,45,4.7,-999.0,25,-99.99,,,0.00,Acu-Link.com,2013-04-21 20:58:00,
2013-04-21 17:14:00,71.4,32.7,30.04,East,90,2.2,-999.0,24,-99.99,,,0.00,Acu-Link.com,2013-04-21 21:14:00,
2013-04-21 17:29:00,73.4,33.3,30.02,NNW,337,4.2,-999.0,23,-99.99,,,0.00,Acu-Link.com,2013-04-21 21:29:00,
2013-04-21 17:44:00,71.4,33.7,30.02,NNE,22,3.7,-999.0,25,-99.99,,,0.00,Acu-Link.com,2013-04-21 21:44:00,
2013-04-21 17:59:00,69.6,34.1,30.02,NNW,337,3.7,-999.0,27,-99.99,,,0.00,Acu-Link.com,2013-04-21 21:59:00,
2013-04-21 18:15:00,67.5,34.1,30.03,NNW,337,7.8,-999.0,29,-99.99,,,0.00,Acu-Link.com,2013-04-21 22:15:00,
2013-04-21 18:30:00,66.6,34.2,30.03,NNE,22,4.7,-999.0,30,-99.99,,,0.00,Acu-Link.com,2013-04-21 22:30:00,
2013-04-21 18:45:00,65.8,34.3,30.02,NNE,22,9.4,-999.0,31,-99.99,,,0.00,Acu-Link.com,2013-04-21 22:45:00,
2013-04-21 19:00:00,64.9,33.5,30.02,ESE,112,2.7,-999.0,31,-99.99,,,0.00,Acu-Link.com,2013-04-21 23:00:00,
2013-04-21 19:15:00,64.2,34.5,30.02,NE,45,4.2,-999.0,33,-99.99,,,0.00,Acu-Link.com,2013-04-21 23:15:00,
2013-04-21 19:30:00,63.3,35.2,30.04,NNW,337,1.7,-999.0,35,-99.99,,,0.00,Acu-Link.com,2013-04-21 23:30:00,
2013-04-21 19:45:00,62.2,34.9,30.04,NW,315,2.2,-999.0,36,-99.99,,,0.00,Acu-Link.com,2013-04-21 23:45:00,
2013-04-21 20:00:00,61.0,34.5,30.04,West,270,0.0,-999.0,37,-99.99,,,0.00,Acu-Link.com,2013-04-22 00:00:00,
2013-04-21 20:16:00,59.4,40.2,30.04,SE,135,0.0,-999.0,49,-99.99,,,0.00,Acu-Link.com,2013-04-22 00:16:00,
2013-04-21 20:31:00,57.7,39.2,30.04,ESE,112,0.0,-999.0,50,-99.99,,,0.00,Acu-Link.com,2013-04-22 00:31:00,
2013-04-21 20:46:00,56.3,39.9,30.05,SE,135,0.0,-999.0,54,-99.99,,,0.00,Acu-Link.com,2013-04-22 00:46:00,
2013-04-21 21:02:00,54.9,39.0,30.05,East,90,0.0,-999.0,55,-99.99,,,0.00,Acu-Link.com,2013-04-22 01:02:00,
2013-04-21 21:17:00,54.0,41.3,30.07,South,180,0.0,-999.0,62,-99.99,,,0.00,Acu-Link.com,2013-04-22 01:17:00,
2013-04-21 21:32:00,53.6,41.7,30.07,South,180,0.0,-999.0,64,-99.99,,,0.00,Acu-Link.com,2013-04-22 01:32:00,
2013-04-21 21:47:00,53.2,42.1,30.07,ENE,67,0.0,-999.0,66,-99.99,,,0.00,Acu-Link.com,2013-04-22 01:47:00,
2013-04-21 22:03:00,52.7,41.7,30.07,SSW,202,0.0,-999.0,66,-99.99,,,0.00,Acu-Link.com,2013-04-22 02:03:00,
2013-04-21 22:18:00,51.6,42.9,30.08,WSW,247,1.1,-999.0,72,-99.99,,,0.00,Acu-Link.com,2013-04-22 02:18:00,
2013-04-21 22:33:00,50.7,42.0,30.09,North,0,0.0,-999.0,72,-99.99,,,0.00,Acu-Link.com,2013-04-22 02:33:00,
2013-04-21 22:49:00,49.6,42.0,30.09,SSE,157,0.0,-999.0,75,-99.99,,,0.00,Acu-Link.com,2013-04-22 02:49:00,
2013-04-21 23:04:00,50.9,39.2,30.10,South,180,1.7,-999.0,64,-99.99,,,0.00,Acu-Link.com,2013-04-22 03:04:00,
2013-04-21 23:20:00,53.8,37.5,30.09,South,180,2.7,-999.0,54,-99.99,,,0.00,Acu-Link.com,2013-04-22 03:20:00,
2013-04-21 23:35:00,55.0,36.7,30.08,SE,135,2.2,-999.0,50,-99.99,,,0.00,Acu-Link.com,2013-04-22 03:35:00,
2013-04-21 23:50:00,54.1,36.9,30.08,SE,135,1.7,-999.0,52,-99.99,,,0.00,Acu-Link.com,2013-04-22 03:50:00,